Weather History for Indian Mountain, AK

Change the Weather History Date:

Wednesday, September 11, 2013

  Actual Average Record
Temperature  
Mean Temperature 48 °F -  
Max Temperature 56 °F 47 °F 64 °F (2010)
Min Temperature 42 °F 34 °F 28 °F (2012)
Degree Days  
Heating Degree Days 16    
Moisture  
Dew Point 44 °F    
Average Humidity 86    
Maximum Humidity 100    
Minimum Humidity 71    
Precipitation  
Precipitation 0.22 in - - ()
Sea Level Pressure  
Sea Level Pressure 29.69 in    
Wind  
Wind Speed 4 mph (West)    
Max Wind Speed 14 mph    
Max Gust Speed 22 mph    
Visibility 9 miles    
Events Rain    
Averages and records for this station are not official NWS values.
T = Trace of Precipitation, MM = Missing Value Source: NWS Daily Summary

Daily Weather History Graph

Daily Weather History Graph

Search for Another Location

Airport:

Trip Planner

Search our weather history database for the weather conditions in past years. The results will help you decide how hot, cold, wet, or windy it might be!

Date:

Astronomy

Sep. 11, 2013 Rise Set
Actual Time 7:23 AM AKDT 8:56 PM AKDT
Civil Twilight 6:29 AM AKDT 9:50 PM AKDT
Nautical Twilight 5:18 AM AKDT 11:00 PM AKDT
Astronomical Twilight 3:35 AM AKDT 12:39 AM AKDT
Moon 4:57 PM AKDT (9/11) 10:07 PM AKDT (9/11)
Length of Visible Light 15h 20m
Length of Day
13h 32m
Waxing Crescent, 40% of the Moon is Illuminated
Sep 11
Waxing Crescent
Sep 12
First Quarter
Sep 19
Full
Sep 26
Last Quarter
Oct 4
New

Hourly Weather History & Observations

Time (AKDT) Temp. Windchill Dew Point Humidity Pressure Visibility Wind Dir Wind Speed Gust Speed Precip Events Conditions
12:55 AM 46.8 °F - 45.3 °F 95% 29.70 in 10.0 mi Variable 3.5 mph - 0.02 in Rain Light Rain
1:55 AM 46.4 °F - 45.1 °F 95% 29.70 in 10.0 mi North 1.2 mph - N/A   Mostly Cloudy
2:55 AM 46.0 °F - 44.6 °F 95% 29.69 in 10.0 mi Variable 2.3 mph - N/A   Mostly Cloudy
3:55 AM 45.9 °F - 44.1 °F 93% 29.69 in 10.0 mi NE 2.3 mph - N/A   Mostly Cloudy
4:55 AM 45.0 °F 43.5 °F 43.9 °F 96% 29.69 in 10.0 mi NNW 3.5 mph - N/A   Mostly Cloudy
5:55 AM 42.8 °F - 41.4 °F 95% 29.68 in 3.0 mi Variable 2.3 mph - N/A   Mostly Cloudy
6:55 AM 43.5 °F - 41.4 °F 92% 29.67 in 10.0 mi Variable 2.3 mph - N/A   Mostly Cloudy
7:55 AM 44.6 °F - 42.8 °F 93% 29.67 in 10.0 mi North 2.3 mph - N/A   Mostly Cloudy
8:21 AM 42.8 °F - 41.0 °F 93% 29.67 in 10.0 mi Variable 1.2 mph - N/A   Mostly Cloudy
8:55 AM 44.6 °F - 42.8 °F 93% 29.66 in 10.0 mi WSW 1.2 mph - N/A   Mostly Cloudy
9:02 AM 42.8 °F 41.1 °F 42.8 °F 100% 29.67 in 10.0 mi North 3.5 mph - N/A   Mostly Cloudy
9:25 AM 44.6 °F - 44.6 °F 100% 29.67 in 10.0 mi East 2.3 mph - N/A   Mostly Cloudy
9:55 AM 48.2 °F - 44.6 °F 87% 29.66 in 10.0 mi WSW 1.2 mph - N/A   Mostly Cloudy
10:55 AM 50.0 °F - 44.6 °F 82% 29.65 in 10.0 mi SSE 3.5 mph - N/A   Partly Cloudy
11:55 AM 51.8 °F - 46.4 °F 82% 29.63 in 10.0 mi ESE 6.9 mph - N/A   Scattered Clouds
12:55 PM 53.6 °F - 46.4 °F 77% 29.63 in 10.0 mi ESE 5.8 mph - N/A   Mostly Cloudy
1:55 PM 55.6 °F - 46.4 °F 71% 29.63 in 10.0 mi ESE 4.6 mph - N/A   Mostly Cloudy
2:25 PM 55.4 °F - 48.2 °F 77% 29.63 in 10.0 mi SE 4.6 mph - N/A   Mostly Cloudy
2:45 PM 55.4 °F - 46.4 °F 72% 29.63 in 10.0 mi Variable 3.5 mph - N/A   Mostly Cloudy
2:55 PM 55.6 °F - 48.0 °F 76% 29.64 in 10.0 mi Variable 2.3 mph - N/A   Mostly Cloudy
3:05 PM 55.4 °F - 46.4 °F 72% 29.64 in 10.0 mi Variable 1.2 mph - N/A   Mostly Cloudy
3:45 PM 55.4 °F - 46.4 °F 72% 29.64 in 10.0 mi SSE 3.5 mph - N/A   Overcast
3:55 PM 55.0 °F - 47.1 °F 75% 29.64 in 10.0 mi SSW 3.5 mph - N/A   Mostly Cloudy
4:55 PM 52.7 °F - 48.2 °F 85% 29.65 in 10.0 mi East 3.5 mph - 0.00 in   Mostly Cloudy
5:45 PM 51.8 °F - 48.2 °F 88% 29.65 in 10.0 mi ESE 8.1 mph - N/A   Mostly Cloudy
5:55 PM 50.9 °F - 46.0 °F 83% 29.66 in 2.5 mi West 13.8 mph 21.9 mph 0.09 in Rain Heavy Rain
6:05 PM 50.0 °F - 46.4 °F 87% 29.67 in 4.0 mi NW 6.9 mph 20.7 mph N/A Rain Heavy Rain
6:25 PM 50.0 °F - 46.4 °F 87% 29.68 in 10.0 mi West 9.2 mph 17.3 mph N/A Rain Rain Showers
6:45 PM 48.2 °F - 46.4 °F 93% 29.69 in 0.8 mi Variable 4.6 mph - N/A Rain Light Rain Showers
6:55 PM 48.0 °F - 46.0 °F 93% 29.69 in 1.0 mi West 9.2 mph - 0.11 in Rain Light Rain Showers
7:05 PM 48.2 °F - 46.4 °F 93% 29.69 in 1.5 mi West 5.8 mph - N/A Rain Light Rain Showers
7:25 PM 48.2 °F - 42.8 °F 82% 29.70 in 10.0 mi WNW 8.1 mph 13.8 mph N/A   Mostly Cloudy
7:55 PM 46.4 °F 42.9 °F 43.7 °F 90% 29.72 in 10.0 mi West 6.9 mph - N/A   Mostly Cloudy
8:46 PM 46.4 °F 42.9 °F 41.0 °F 81% 29.73 in 10.0 mi West 6.9 mph - N/A   Mostly Cloudy
8:55 PM 46.4 °F 41.9 °F 41.9 °F 84% 29.74 in 10.0 mi West 9.2 mph - N/A   Mostly Cloudy
9:46 PM 44.6 °F 41.4 °F 41.0 °F 87% 29.75 in 10.0 mi West 5.8 mph - N/A   Mostly Cloudy
9:55 PM 45.0 °F 39.3 °F 41.0 °F 86% 29.75 in 10.0 mi West 11.5 mph - N/A   Mostly Cloudy
10:55 PM 44.1 °F 40.8 °F 39.9 °F 85% 29.78 in 10.0 mi WNW 5.8 mph - N/A   Mostly Cloudy
11:06 PM 44.6 °F 41.4 °F 39.2 °F 81% 29.78 in 10.0 mi West 5.8 mph - N/A   Scattered Clouds
11:46 PM 42.8 °F 40.1 °F 37.4 °F 81% 29.80 in 10.0 mi Variable 4.6 mph - N/A   Mostly Cloudy
11:55 PM 43.0 °F 39.5 °F 38.3 °F 84% 29.80 in 10.0 mi WNW 5.8 mph - N/A   Mostly Cloudy